パンスターズ彗星

C/2022 H1 ( PanSTARRS )

English version
Home page
Updated on September 11, 2022

---------------------------------------------------------------------

・ プロフィール

発見日 2022年4月21日
発見光度 20.6等
発見者 Pan-STARRS 2 telescope (Haleakala)

・ 軌道要素

Epoch 2022 Aug. 9.0 TT = JDT 2459800.5                                          
T 2024 Jan. 18.83909 TT                                 Rudenko                 
q   7.6927389            (2000.0)            P               Q                  
z  +0.0009226      Peri.  246.26710     -0.33454864     +0.93855473             
 +/-0.0000391      Node     6.36819     -0.30051610     -0.02095760             
e   0.9929024      Incl.   49.87118     -0.89317819     -0.34449353             
From 62 observations 2022 Mar. 2-Aug. 1, mean residual 0".4.                    

・ 光度変化

        m1 = 6.0 + 5 logΔ + 10.0 log r

---------------------------------------------------------------------

軌道要素はM.P.E.C. 2022-P82に掲載されたものです。
光度グラフはComet for Windowsで作成したものです。

---------------------------------------------------------------------

Copyright(C) Seiichi Yoshida (comet@aerith.net). All rights reserved.